PST,Max TemperatureF,Mean TemperatureF,Min TemperatureF,Max Dew PointF,MeanDew PointF,Min DewpointF,Max Humidity, Mean Humidity, Min Humidity, Max Sea Level PressureIn, Mean Sea Level PressureIn, Min Sea Level PressureIn, Max VisibilityMiles, Mean VisibilityMiles, Min VisibilityMiles, Max Wind SpeedMPH, Mean Wind SpeedMPH, Max Gust SpeedMPH,PrecipitationIn, CloudCover, Events, WindDirDegrees
2012-2-1,44,40,37,44,38,36,98,90,76,29.94,29.86,29.75,,,,53,17,,0.00,,,175
2012-2-2,47,46,45,46,44,40,99,93,79,30.01,29.89,29.80,,,,48,29,,0.00,,,153
2012-2-3,48,43,38,44,40,36,98,85,69,30.14,30.04,29.82,,,,40,23,,0.00,,,179
2012-2-4,46,42,38,43,41,38,99,92,85,30.15,30.08,29.97,,,,14,5,,0.00,,,144
2012-2-5,47,45,43,44,41,38,94,85,78,30.14,29.99,29.86,,,,41,23,,0.00,,,152
2012-2-6,45,43,40,42,40,37,93,88,81,30.14,30.01,29.88,,,,30,12,,0.00,,,14
2012-2-7,46,43,40,41,40,37,93,85,78,29.85,29.74,29.66,,,,114,10,,0.05,,,142
2012-2-8,47,46,44,45,43,42,97,90,84,30.03,29.80,29.64,,,,44,29,,0.00,,,151
2012-2-9,47,45,41,46,42,37,98,88,75,30.03,29.81,29.57,,,,44,23,,0.00,,,153
2012-2-10,44,40,37,40,37,35,92,86,80,30.08,30.04,30.00,,,,16,6,,0.00,,,290
2012-2-11,45,40,34,43,39,34,99,93,86,30.00,29.90,29.79,,,,32,13,,0.00,,,187
2012-2-12,45,42,39,43,34,31,92,72,60,30.20,30.02,29.83,,,,16,10,,0.00,,,292
2012-2-13,42,38,35,37,35,34,95,86,77,30.22,30.05,29.80,,,,60,12,,0.00,,,193
2012-2-14,44,42,40,40,38,35,91,84,75,30.13,29.98,29.80,,,,20,13,,0.00,,,150
2012-2-15,43,41,39,40,38,36,93,86,78,30.14,30.05,29.92,,,,29,14,,0.00,,,169
2012-2-16,44,42,39,42,40,37,97,92,82,30.12,30.06,29.95,,,,21,11,,0.00,,,177
2012-2-17,44,40,37,41,39,36,96,90,84,30.01,29.76,29.62,,,,30,16,,0.00,,,115
2012-2-18,43,40,38,37,33,29,95,75,58,29.99,29.89,29.71,,,,15,10,,0.00,,,280
2012-2-19,43,40,38,40,38,33,95,89,74,29.93,29.69,29.45,,,,44,23,,0.00,,,156
2012-2-20,48,44,41,43,41,35,99,87,69,29.72,29.53,29.41,,,,41,24,,0.00,,,174
2012-2-21,45,42,39,39,36,32,93,78,60,29.77,29.69,29.61,,,,21,7,,0.00,,,213
2012-2-22,44,42,39,38,34,31,89,75,59,30.34,29.99,29.63,,,,22,11,,0.00,,,278
2012-2-23,42,40,37,36,34,31,93,80,70,30.38,30.25,29.92,,,,53,10,,0.00,,,192
2012-2-24,38,36,35,37,33,26,99,87,64,29.85,29.63,29.47,,,,34,27,,0.00,,,352
2012-2-25,39,37,34,32,27,22,85,67,55,30.31,30.10,29.79,,,,21,14,,0.00,,,304
2012-2-26,37,35,33,31,25,22,85,65,57,30.44,30.38,30.28,,,,15,10,,0.00,,,315
2012-2-27,39,38,36,36,34,30,93,86,75,30.25,29.80,29.52,,,,37,16,,0.00,,,174
2012-2-28,39,36,33,37,36,33,99,92,86,29.51,29.43,29.40,,,,63,14,,0.00,,,163
2012-2-29,40,38,35,36,35,34,99,92,79,29.80,29.55,29.41,,,,114,10,,0.00,,,300